| time (UTC) | temp F | wind direction | speed knots | gust knots | rain 1hr in | rain 24hr in | rain mn in | humidity % | barometer mb |
| 20260904222048 | 85 | 0 | 0.0 | 0.0 | 0.00 | 0.01 | 0.01 | 78 | 1012.3 |
| 20260904221604 | 85 | 0 | 0.0 | 0.0 | 0.00 | 0.01 | 0.01 | 78 | 1012.3 |
| 20260904221047 | 85 | 0 | 0.0 | 0.0 | 0.00 | 0.01 | 0.01 | 77 | 1012.3 |
| 20260904220546 | 85 | 0 | 0.0 | 0.9 | 0.00 | 0.01 | 0.01 | 77 | 1012.3 |
| 20260904220107 | 85 | 0 | 0.0 | 1.7 | 0.00 | 0.01 | 0.01 | 78 | 1012.3 |
| 20260904215546 | 85 | 0 | 0.0 | 1.7 | 0.00 | 0.01 | 0.01 | 78 | 1012.3 |
| 20260904215046 | 85 | 0 | 0.0 | 1.7 | 0.00 | 0.01 | 0.01 | 78 | 1012.1 |
| 20260904214603 | 85 | 0 | 0.0 | 1.7 | 0.00 | 0.01 | 0.01 | 77 | 1012.4 |
| 20260904214046 | 85 | 178 | 0.0 | 3.5 | 0.00 | 0.01 | 0.01 | 78 | 1012.1 |
| 20260904213546 | 85 | 197 | 0.9 | 4.3 | 0.00 | 0.01 | 0.01 | 77 | 1012.1 |
| 20260904213107 | 85 | 177 | 0.9 | 4.3 | 0.00 | 0.01 | 0.01 | 77 | 1012.1 |
| 20260904212546 | 85 | 186 | 1.7 | 4.3 | 0.00 | 0.01 | 0.01 | 78 | 1012.0 |
| 20260904212047 | 85 | 190 | 0.9 | 4.3 | 0.00 | 0.01 | 0.01 | 77 | 1012.1 |
| 20260904211603 | 85 | 189 | 0.9 | 5.2 | 0.00 | 0.01 | 0.01 | 77 | 1012.0 |
| 20260904211047 | 85 | 186 | 0.9 | 6.1 | 0.00 | 0.01 | 0.01 | 77 | 1011.9 |
| 20260904210546 | 85 | 194 | 2.6 | 6.1 | 0.00 | 0.01 | 0.01 | 77 | 1011.8 |
| 20260904210108 | 85 | 177 | 0.9 | 5.2 | 0.00 | 0.01 | 0.01 | 77 | 1011.8 |
| 20260904205546 | 85 | 178 | 2.6 | 5.2 | 0.00 | 0.01 | 0.01 | 77 | 1011.7 |
| 20260904205046 | 85 | 177 | 1.7 | 5.2 | 0.00 | 0.01 | 0.01 | 76 | 1011.9 |
| 20260904204558 | 85 | 197 | 1.7 | 4.3 | 0.00 | 0.01 | 0.01 | 76 | 1011.8 |
| 20260904204046 | 85 | 198 | 0.9 | 7.8 | 0.00 | 0.01 | 0.01 | 77 | 1012.0 |
| 20260904203546 | 85 | 190 | 2.6 | 7.8 | 0.00 | 0.01 | 0.01 | 77 | 1011.9 |
| 20260904203101 | 85 | 183 | 5.2 | 7.8 | 0.00 | 0.01 | 0.01 | 77 | 1011.9 |
| 20260904202547 | 85 | 200 | 2.6 | 6.1 | 0.00 | 0.01 | 0.01 | 76 | 1012.0 |
| 20260904202045 | 85 | 163 | 3.5 | 6.1 | 0.00 | 0.01 | 0.01 | 77 | 1012.1 |
| 20260904201558 | 84 | 211 | 2.6 | 7.0 | 0.00 | 0.01 | 0.01 | 78 | 1012.2 |
| 20260904201047 | 84 | 185 | 2.6 | 7.0 | 0.00 | 0.01 | 0.01 | 80 | 1012.3 |
| 20260904200545 | 83 | 190 | 3.5 | 7.0 | 0.00 | 0.01 | 0.01 | 80 | 1012.3 |
| 20260904200058 | 83 | 182 | 1.7 | 6.1 | 0.00 | 0.01 | 0.01 | 80 | 1012.3 |
| 20260904195546 | 83 | 213 | 2.6 | 6.1 | 0.00 | 0.01 | 0.01 | 80 | 1012.4 |
| 20260904195046 | 82 | 188 | 3.5 | 7.0 | 0.00 | 0.01 | 0.01 | 80 | 1012.5 |
| 20260904194555 | 82 | 178 | 2.6 | 7.0 | 0.00 | 0.01 | 0.01 | 81 | 1012.7 |
| 20260904194047 | 81 | 185 | 2.6 | 5.2 | 0.00 | 0.01 | 0.01 | 82 | 1012.7 |
| 20260904193546 | 81 | 185 | 2.6 | 5.2 | 0.00 | 0.01 | 0.01 | 82 | 1012.8 |
| 20260904193105 | 80 | 188 | 0.9 | 4.3 | 0.00 | 0.01 | 0.01 | 84 | 1012.9 |
| 20260904192546 | 80 | 189 | 0.0 | 7.0 | 0.00 | 0.01 | 0.01 | 83 | 1013.2 |
| 20260904192045 | 80 | 189 | 1.7 | 7.8 | 0.00 | 0.01 | 0.01 | 83 | 1013.2 |
| 20260904191605 | 80 | 186 | 3.5 | 7.8 | 0.00 | 0.01 | 0.01 | 82 | 1013.1 |
| 20260904191046 | 80 | 180 | 3.5 | 7.0 | 0.00 | 0.01 | 0.01 | 83 | 1013.1 |
| 20260904190547 | 79 | 187 | 2.6 | 7.0 | 0.00 | 0.01 | 0.01 | 82 | 1013.1 |
| 20260904190057 | 79 | 195 | 2.6 | 11.3 | 0.00 | 0.01 | 0.01 | 81 | 1013.4 |
| 20260904185547 | 79 | 195 | 3.5 | 11.3 | 0.00 | 0.01 | 0.01 | 82 | 1013.3 |
| 20260904185050 | 79 | 191 | 7.0 | 11.3 | 0.00 | 0.01 | 0.01 | 82 | 1012.8 |
| 20260904184606 | 79 | 193 | 6.1 | 11.3 | 0.00 | 0.01 | 0.01 | 83 | 1013.0 |
| 20260904184046 | 79 | 188 | 6.1 | 11.3 | 0.00 | 0.01 | 0.01 | 83 | 1013.1 |
| 20260904183546 | 79 | 194 | 5.2 | 9.6 | 0.00 | 0.01 | 0.01 | 86 | 1013.3 |
| 20260904183100 | 78 | 176 | 5.2 | 9.6 | 0.00 | 0.01 | 0.01 | 86 | 1013.2 |
| 20260904182542 | 77 | 199 | 4.3 | 10.4 | 0.00 | 0.01 | 0.01 | 87 | 1013.5 |
| 20260904182042 | 77 | 184 | 4.3 | 10.4 | 0.00 | 0.01 | 0.01 | 89 | 1013.7 |
| 20260904181557 | 76 | 180 | 4.3 | 8.7 | 0.00 | 0.01 | 0.01 | 89 | 1013.8 |
| 20260904181042 | 75 | 192 | 3.5 | 7.0 | 0.00 | 0.01 | 0.01 | 91 | 1013.8 |
| 20260904180542 | 75 | 192 | 3.5 | 7.8 | 0.00 | 0.01 | 0.01 | 92 | 1013.8 |
| 20260904180054 | 74 | 180 | 2.6 | 7.8 | 0.00 | 0.01 | 0.01 | 92 | 1013.8 |
| 20260904175541 | 74 | 205 | 2.6 | 7.0 | 0.00 | 0.01 | 0.01 | 93 | 1014.0 |
| 20260904175044 | 73 | 186 | 3.5 | 7.8 | 0.00 | 0.01 | 0.01 | 93 | 1014.0 |
| 20260904174604 | 73 | 195 | 2.6 | 7.8 | 0.00 | 0.01 | 0.01 | 93 | 1013.9 |
| 20260904174046 | 73 | 182 | 2.6 | 6.1 | 0.00 | 0.01 | 0.01 | 93 | 1013.8 |
| 20260904173542 | 73 | 197 | 3.5 | 7.8 | 0.00 | 0.01 | 0.01 | 93 | 1013.9 |
| 20260904173058 | 72 | 200 | 1.7 | 8.7 | 0.00 | 0.01 | 0.01 | 93 | 1013.9 |
| 20260904172542 | 72 | 182 | 3.5 | 10.4 | 0.00 | 0.01 | 0.01 | 93 | 1014.0 |
| 20260904172044 | 72 | 186 | 4.3 | 10.4 | 0.00 | 0.01 | 0.01 | 93 | 1013.9 |
| 20260904171604 | 72 | 180 | 6.1 | 12.2 | 0.00 | 0.01 | 0.01 | 93 | 1013.7 |
| 20260904171043 | 72 | 197 | 7.0 | 13.9 | 0.00 | 0.01 | 0.01 | 93 | 1013.6 |
| 20260904170544 | 72 | 197 | 7.0 | 13.9 | 0.00 | 0.01 | 0.01 | 94 | 1013.5 |
| 20260904170101 | 71 | 195 | 9.6 | 15.6 | 0.00 | 0.01 | 0.01 | 93 | 1013.9 |
| 20260904165543 | 71 | 216 | 8.7 | 15.6 | 0.00 | 0.01 | 0.01 | 94 | 1013.9 |
| 20260904165043 | 71 | 178 | 7.8 | 14.8 | 0.00 | 0.01 | 0.01 | 94 | 1014.3 |
| 20260904164600 | 71 | 190 | 7.8 | 14.8 | 0.00 | 0.01 | 0.01 | 94 | 1013.9 |
| 20260904164044 | 71 | 180 | 6.1 | 9.6 | 0.00 | 0.01 | 0.01 | 94 | 1014.2 |
| 20260904163542 | 71 | 190 | 5.2 | 10.4 | 0.00 | 0.01 | 0.01 | 93 | 1014.3 |
| 20260904163055 | 71 | 186 | 7.0 | 10.4 | 0.00 | 0.01 | 0.01 | 93 | 1014.2 |
| 20260904162544 | 71 | 198 | 6.1 | 9.6 | 0.00 | 0.01 | 0.01 | 93 | 1014.4 |
| 20260904162044 | 71 | 207 | 3.5 | 9.6 | 0.00 | 0.01 | 0.01 | 92 | 1014.5 |
| 20260904161558 | 71 | 159 | 3.5 | 13.0 | 0.00 | 0.01 | 0.01 | 91 | 1015.0 |
| 20260904161045 | 71 | 191 | 7.0 | 13.0 | 0.00 | 0.01 | 0.01 | 91 | 1015.4 |
| 20260904160544 | 71 | 163 | 5.2 | 9.6 | 0.00 | 0.01 | 0.01 | 91 | 1015.3 |
| 20260904160059 | 72 | 164 | 6.1 | 8.7 | 0.00 | 0.01 | 0.01 | 91 | 1015.3 |
| 20260904155543 | 71 | 180 | 3.5 | 7.0 | 0.00 | 0.01 | 0.01 | 90 | 1016.0 |
| 20260904155042 | 71 | 0 | 0.9 | 2.6 | 0.00 | 0.01 | 0.01 | 90 | 1016.8 |
| 20260904154600 | 71 | 0 | 0.0 | 2.6 | 0.00 | 0.01 | 0.01 | 90 | 1016.6 |
| 20260904154042 | 71 | 309 | 0.0 | 3.5 | 0.00 | 0.01 | 0.01 | 90 | 1016.8 |
| 20260904153542 | 71 | 120 | 0.9 | 4.3 | 0.00 | 0.01 | 0.01 | 90 | 1016.6 |
| 20260904153103 | 71 | 128 | 0.9 | 4.3 | 0.00 | 0.01 | 0.01 | 91 | 1016.3 |
| 20260904152541 | 70 | 186 | 0.0 | 6.1 | 0.00 | 0.01 | 0.01 | 91 | 1016.6 |
| 20260904152043 | 70 | 208 | 1.7 | 6.1 | 0.00 | 0.01 | 0.01 | 91 | 1016.5 |
| 20260904151601 | 70 | 200 | 0.9 | 7.0 | 0.00 | 0.01 | 0.01 | 92 | 1016.2 |
| 20260904151043 | 70 | 171 | 2.6 | 7.0 | 0.00 | 0.01 | 0.01 | 93 | 1016.1 |
| 20260904150542 | 70 | 178 | 1.7 | 5.2 | 0.00 | 0.01 | 0.01 | 93 | 1015.8 |
| 20260904150059 | 70 | 136 | 0.9 | 4.3 | 0.00 | 0.01 | 0.01 | 94 | 1015.9 |
| 20260904145544 | 70 | 152 | 0.0 | 3.5 | 0.00 | 0.01 | 0.01 | 94 | 1016.0 |
| 20260904145043 | 70 | 102 | 0.9 | 3.5 | 0.00 | 0.01 | 0.01 | 94 | 1016.3 |
| 20260904144556 | 70 | 105 | 0.0 | 2.6 | 0.00 | 0.01 | 0.01 | 94 | 1016.6 |
| 20260904144043 | 70 | 27 | 0.0 | 4.3 | 0.00 | 0.01 | 0.01 | 94 | 1016.5 |
| 20260904143542 | 69 | 0 | 0.9 | 4.3 | 0.00 | 0.01 | 0.01 | 94 | 1016.1 |
| 20260904143106 | 69 | 0 | 0.0 | 1.7 | 0.00 | 0.01 | 0.01 | 94 | 1016.0 |
| 20260904142543 | 69 | 150 | 0.0 | 2.6 | 0.00 | 0.01 | 0.01 | 94 | 1016.3 |
| 20260904142044 | 69 | 0 | 0.0 | 4.3 | 0.00 | 0.01 | 0.01 | 95 | 1016.5 |
| 20260904141605 | 69 | 0 | 0.0 | 5.2 | 0.00 | 0.01 | 0.01 | 94 | 1016.5 |
| 20260904141045 | 69 | 9 | 0.9 | 5.2 | 0.00 | 0.01 | 0.01 | 94 | 1016.5 |
| 20260904140541 | 69 | 355 | 0.9 | 7.8 | 0.00 | 0.01 | 0.01 | 94 | 1016.7 |
| 20260904140107 | 69 | 329 | 1.7 | 7.8 | 0.00 | 0.01 | 0.01 | 94 | 1016.8 |
| 20260904135544 | 69 | 24 | 2.6 | 7.8 | 0.00 | 0.01 | 0.01 | 95 | 1017.0 |
| 20260904135043 | 69 | 24 | 1.7 | 8.7 | 0.00 | 0.01 | 0.01 | 95 | 1017.1 |
| 20260904134606 | 69 | 340 | 2.6 | 8.7 | 0.00 | 0.01 | 0.01 | 95 | 1016.7 |
| 20260904134043 | 69 | 5 | 2.6 | 7.8 | 0.00 | 0.01 | 0.01 | 95 | 1016.8 |
| 20260904133543 | 69 | 5 | 1.7 | 3.5 | 0.00 | 0.01 | 0.01 | 95 | 1016.5 |
| 20260904133104 | 69 | 355 | 0.0 | 2.6 | 0.00 | 0.01 | 0.01 | 95 | 1015.8 |
| 20260904132545 | 69 | 0 | 0.0 | 2.6 | 0.00 | 0.01 | 0.01 | 95 | 1015.6 |
| 20260904132043 | 69 | 118 | 0.0 | 3.5 | 0.00 | 0.01 | 0.01 | 95 | 1015.1 |
| 20260904131600 | 69 | 0 | 0.0 | 3.5 | 0.00 | 0.01 | 0.01 | 95 | 1015.0 |
| 20260904131044 | 69 | 0 | 0.0 | 1.7 | 0.00 | 0.01 | 0.01 | 95 | 1015.2 |
| 20260904130542 | 69 | 45 | 0.0 | 5.2 | 0.00 | 0.01 | 0.01 | 95 | 1015.2 |
| 20260904130059 | 69 | 96 | 0.0 | 6.1 | 0.00 | 0.01 | 0.01 | 95 | 1015.3 |
| 20260904125544 | 69 | 47 | 0.9 | 10.4 | 0.00 | 0.01 | 0.01 | 95 | 1015.5 |
| 20260904125043 | 69 | 211 | 0.0 | 10.4 | 0.00 | 0.01 | 0.01 | 95 | 1015.4 |
| 20260904124610 | 69 | 13 | 1.7 | 10.4 | 0.00 | 0.01 | 0.01 | 95 | 1015.4 |
| 20260904124041 | 69 | 21 | 1.7 | 6.1 | 0.00 | 0.01 | 0.01 | 95 | 1015.3 |
| 20260904123544 | 69 | 30 | 0.9 | 6.1 | 0.00 | 0.01 | 0.01 | 95 | 1015.1 |
| 20260904123103 | 69 | 46 | 1.7 | 4.3 | 0.00 | 0.01 | 0.01 | 95 | 1015.0 |
| 20260904122546 | 69 | 355 | 0.9 | 4.3 | 0.00 | 0.01 | 0.01 | 95 | 1014.7 |
| 20260904122043 | 69 | 0 | 0.0 | 4.3 | 0.00 | 0.01 | 0.01 | 95 | 1015.0 |
| 20260904121559 | 69 | 190 | 0.0 | 4.3 | 0.00 | 0.01 | 0.01 | 95 | 1015.0 |
| 20260904121042 | 69 | 281 | 0.9 | 4.3 | 0.00 | 0.01 | 0.01 | 94 | 1014.8 |
| 20260904120542 | 69 | 17 | 0.9 | 4.3 | 0.01 | 0.01 | 0.01 | 94 | 1014.6 |
| 20260904120058 | 69 | 0 | 0.9 | 4.3 | 0.01 | 0.01 | 0.01 | 94 | 1014.4 |
| 20260904115542 | 69 | 39 | 0.9 | 3.5 | 0.01 | 0.01 | 0.01 | 94 | 1014.4 |
| 20260904115046 | 69 | 30 | 1.7 | 3.5 | 0.01 | 0.01 | 0.01 | 94 | 1014.1 |
| 20260904114554 | 69 | 20 | 0.9 | 2.6 | 0.01 | 0.01 | 0.01 | 94 | 1013.9 |
| 20260904114043 | 69 | 0 | 0.0 | 1.7 | 0.01 | 0.01 | 0.01 | 94 | 1013.6 |
| 20260904113543 | 69 | 0 | 0.0 | 0.9 | 0.01 | 0.01 | 0.01 | 94 | 1013.6 |
| 20260904113100 | 69 | 16 | 0.0 | 2.6 | 0.01 | 0.01 | 0.01 | 94 | 1013.7 |
| 20260904112542 | 70 | 0 | 0.0 | 2.6 | 0.01 | 0.01 | 0.01 | 94 | 1013.6 |
| 20260904112042 | 70 | 23 | 0.0 | 2.6 | 0.01 | 0.01 | 0.01 | 94 | 1013.6 |
| 20260904111600 | 70 | 34 | 0.0 | 2.6 | 0.01 | 0.01 | 0.01 | 94 | 1013.5 |
| 20260904111042 | 70 | 0 | 0.0 | 1.7 | 0.01 | 0.01 | 0.01 | 94 | 1013.4 |
| 20260904110544 | 70 | 280 | 0.0 | 2.6 | 0.00 | 0.00 | 0.00 | 94 | 1013.3 |
| 20260904110057 | 70 | 0 | 0.0 | 2.6 | 0.00 | 0.00 | 0.00 | 94 | 1013.3 |
| 20260904105547 | 71 | 0 | 0.0 | 2.6 | 0.00 | 0.00 | 0.00 | 94 | 1013.4 |
| 20260904105043 | 71 | 32 | 0.0 | 4.3 | 0.00 | 0.00 | 0.00 | 95 | 1013.1 |
| 20260904104602 | 71 | 26 | 0.9 | 4.3 | 0.00 | 0.00 | 0.00 | 95 | 1013.2 |
| 20260904104044 | 71 | 0 | 0.9 | 4.3 | 0.00 | 0.00 | 0.00 | 95 | 1013.3 |
| 20260904103542 | 71 | 26 | 0.9 | 4.3 | 0.00 | 0.00 | 0.00 | 95 | 1013.4 |
| 20260904103100 | 71 | 28 | 1.7 | 6.1 | 0.00 | 0.00 | 0.00 | 95 | 1013.4 |
| 20260904102546 | 72 | 0 | 0.9 | 7.0 | 0.00 | 0.00 | 0.00 | 95 | 1013.4 |
| 20260904102044 | 72 | 0 | 1.7 | 7.0 | 0.00 | 0.00 | 0.00 | 95 | 1013.6 |
| 20260904101556 | 72 | 9 | 0.9 | 5.2 | 0.00 | 0.00 | 0.00 | 95 | 1013.6 |
| 20260904101043 | 72 | 0 | 0.9 | 6.1 | 0.00 | 0.00 | 0.00 | 95 | 1013.5 |
| 20260904100544 | 72 | 19 | 1.7 | 6.1 | 0.00 | 0.00 | 0.00 | 95 | 1013.4 |
| 20260904100112 | 72 | 22 | 0.9 | 5.2 | 0.00 | 0.00 | 0.00 | 95 | 1013.5 |
| 20260904095544 | 72 | 32 | 0.0 | 5.2 | 0.00 | 0.00 | 0.00 | 95 | 1013.5 |
| 20260904095045 | 72 | 48 | 1.7 | 5.2 | 0.00 | 0.00 | 0.00 | 95 | 1013.3 |
| 20260904094559 | 72 | 0 | 1.7 | 5.2 | 0.00 | 0.00 | 0.00 | 95 | 1013.1 |
| 20260904094043 | 72 | 15 | 0.9 | 4.3 | 0.00 | 0.00 | 0.00 | 95 | 1013.5 |
| 20260904093545 | 72 | 0 | 0.0 | 0.0 | 0.00 | 0.00 | 0.00 | 95 | 1013.1 |
| 20260904093056 | 72 | 0 | 0.0 | 0.0 | 0.00 | 0.00 | 0.00 | 95 | 1012.9 |
| 20260904092545 | 72 | 0 | 0.0 | 0.0 | 0.00 | 0.00 | 0.00 | 95 | 1012.9 |
| 20260904092044 | 72 | 0 | 0.0 | 0.0 | 0.00 | 0.00 | 0.00 | 95 | 1012.9 |
| 20260904091556 | 72 | 0 | 0.0 | 0.0 | 0.00 | 0.00 | 0.00 | 95 | 1012.8 |
| 20260904091043 | 72 | 0 | 0.0 | 0.0 | 0.00 | 0.00 | 0.00 | 95 | 1012.7 |
| 20260904090543 | 72 | 0 | 0.0 | 0.0 | 0.00 | 0.00 | 0.00 | 95 | 1012.8 |
| 20260904090100 | 72 | 0 | 0.0 | 0.0 | 0.00 | 0.00 | 0.00 | 95 | 1012.8 |
| 20260904085545 | 72 | 0 | 0.0 | 0.0 | 0.00 | 0.00 | 0.00 | 95 | 1012.8 |
| 20260904085047 | 72 | 0 | 0.0 | 0.0 | 0.00 | 0.00 | 0.00 | 95 | 1012.5 |
| 20260904084608 | 72 | 0 | 0.0 | 0.0 | 0.00 | 0.00 | 0.00 | 95 | 1012.4 |
| 20260904084048 | 72 | 0 | 0.0 | 0.0 | 0.00 | 0.00 | 0.00 | 95 | 1012.6 |
| 20260904083545 | 72 | 0 | 0.0 | 0.0 | 0.00 | 0.00 | 0.00 | 95 | 1012.5 |
| 20260904083057 | 72 | 0 | 0.0 | 0.0 | 0.00 | 0.00 | 0.00 | 95 | 1012.3 |
| 20260904082552 | 72 | 0 | 0.0 | 0.0 | 0.00 | 0.00 | 0.00 | 95 | 1012.3 |
| 20260904082045 | 72 | 0 | 0.0 | 0.0 | 0.00 | 0.00 | 0.00 | 95 | 1012.1 |
| 20260904081601 | 71 | 0 | 0.0 | 0.0 | 0.00 | 0.00 | 0.00 | 95 | 1012.2 |
| 20260904081047 | 71 | 0 | 0.0 | 0.0 | 0.00 | 0.00 | 0.00 | 95 | 1012.5 |
| 20260904080543 | 71 | 0 | 0.0 | 0.0 | 0.00 | 0.00 | 0.00 | 95 | 1012.6 |
| 20260904075547 | 71 | 0 | 0.0 | 0.0 | 0.00 | 0.00 | 0.00 | 95 | 1012.9 |
| 20260904075045 | 71 | 0 | 0.0 | 0.0 | 0.00 | 0.00 | 0.00 | 95 | 1012.8 |
| 20260904074612 | 71 | 0 | 0.0 | 0.0 | 0.00 | 0.00 | 0.00 | 95 | 1012.9 |
| 20260904074045 | 71 | 0 | 0.0 | 0.0 | 0.00 | 0.00 | 0.00 | 95 | 1013.1 |
| 20260904073547 | 71 | 0 | 0.0 | 0.0 | 0.00 | 0.00 | 0.00 | 95 | 1013.1 |
| 20260904073101 | 71 | 0 | 0.0 | 0.0 | 0.00 | 0.00 | 0.00 | 95 | 1013.1 |
| 20260904072547 | 71 | 0 | 0.0 | 0.0 | 0.00 | 0.00 | 0.00 | 95 | 1013.0 |
| 20260904072043 | 71 | 0 | 0.0 | 2.6 | 0.00 | 0.00 | 0.00 | 95 | 1013.3 |
| 20260904071605 | 71 | 0 | 0.0 | 2.6 | 0.00 | 0.00 | 0.00 | 95 | 1013.2 |
| 20260904071045 | 71 | 0 | 0.0 | 5.2 | 0.00 | 0.00 | 0.00 | 95 | 1013.5 |
| 20260904070547 | 71 | 0 | 0.0 | 5.2 | 0.00 | 0.00 | 0.00 | 95 | 1013.4 |
| 20260904065546 | 71 | 10 | 0.9 | 2.6 | 0.00 | 0.00 | 0.00 | 94 | 1013.2 |
| 20260904065049 | 71 | 0 | 0.0 | 4.3 | 0.00 | 0.00 | 0.00 | 94 | 1013.3 |
| 20260904064602 | 71 | 0 | 0.0 | 4.3 | 0.00 | 0.00 | 0.00 | 94 | 1013.3 |
| 20260904064043 | 71 | 24 | 1.7 | 4.3 | 0.00 | 0.00 | 0.00 | 94 | 1013.3 |
| 20260904063543 | 71 | 19 | 0.0 | 2.6 | 0.00 | 0.00 | 0.00 | 94 | 1013.1 |
| 20260904063107 | 71 | 0 | 0.0 | 2.6 | 0.00 | 0.00 | 0.00 | 94 | 1013.3 |
| 20260904062545 | 71 | 0 | 0.0 | 2.6 | 0.00 | 0.00 | 0.00 | 94 | 1013.4 |
| 20260904062044 | 71 | 0 | 0.0 | 0.9 | 0.00 | 0.00 | 0.00 | 94 | 1013.4 |
| 20260904061603 | 71 | 0 | 0.0 | 0.0 | 0.00 | 0.00 | 0.00 | 93 | 1013.1 |
| 20260904061049 | 71 | 0 | 0.0 | 0.0 | 0.00 | 0.00 | 0.00 | 93 | 1013.0 |
| 20260904060544 | 72 | 0 | 0.0 | 0.0 | 0.00 | 0.00 | 0.00 | 93 | 1013.2 |
| 20260904060106 | 72 | 0 | 0.0 | 0.0 | 0.00 | 0.00 | 0.00 | 93 | 1013.1 |
| 20260904055545 | 72 | 0 | 0.0 | 0.0 | 0.00 | 0.00 | 0.00 | 94 | 1013.3 |
| 20260904055045 | 72 | 0 | 0.0 | 0.0 | 0.00 | 0.00 | 0.00 | 94 | 1013.5 |
| 20260904054606 | 72 | 0 | 0.0 | 0.0 | 0.00 | 0.00 | 0.00 | 94 | 1013.5 |
| 20260904054044 | 72 | 0 | 0.0 | 0.9 | 0.00 | 0.00 | 0.00 | 94 | 1013.6 |
| 20260904053548 | 72 | 0 | 0.0 | 0.9 | 0.00 | 0.00 | 0.00 | 94 | 1013.6 |
| 20260904053105 | 72 | 0 | 0.0 | 0.9 | 0.00 | 0.00 | 0.00 | 94 | 1013.5 |
| 20260904052547 | 72 | 0 | 0.0 | 0.9 | 0.00 | 0.00 | 0.00 | 93 | 1013.5 |
| 20260904052047 | 72 | 0 | 0.0 | 0.9 | 0.00 | 0.00 | 0.00 | 93 | 1013.7 |
| 20260904051609 | 72 | 0 | 0.0 | 0.9 | 0.00 | 0.00 | 0.00 | 93 | 1013.9 |
| 20260904051046 | 72 | 0 | 0.0 | 0.0 | 0.00 | 0.00 | 0.00 | 93 | 1013.9 |
| 20260904050546 | 72 | 0 | 0.0 | 0.0 | 0.00 | 0.00 | 0.00 | 93 | 1013.7 |
| 20260904050104 | 72 | 0 | 0.0 | 0.0 | 0.00 | 0.00 | 0.00 | 93 | 1013.8 |
| 20260904045546 | 72 | 0 | 0.0 | 0.0 | 0.00 | 0.00 | 0.00 | 93 | 1013.9 |
| 20260904045045 | 72 | 0 | 0.0 | 0.0 | 0.00 | 0.00 | 0.00 | 93 | 1014.1 |
| 20260904044606 | 72 | 0 | 0.0 | 0.0 | 0.00 | 0.00 | 0.00 | 93 | 1014.1 |
| 20260904044047 | 72 | 0 | 0.0 | 0.0 | 0.00 | 0.00 | 0.00 | 93 | 1013.9 |
| 20260904043547 | 72 | 0 | 0.0 | 0.0 | 0.00 | 0.00 | 0.00 | 93 | 1014.0 |
| 20260904043057 | 72 | 0 | 0.0 | 0.0 | 0.00 | 0.00 | 0.00 | 93 | 1014.1 |
| 20260904042546 | 72 | 0 | 0.0 | 0.0 | 0.00 | 0.00 | 0.00 | 93 | 1014.0 |
| 20260904042048 | 72 | 0 | 0.0 | 0.0 | 0.00 | 0.00 | 0.00 | 92 | 1014.1 |
| 20260904041555 | 72 | 0 | 0.0 | 0.0 | 0.00 | 0.00 | 0.00 | 92 | 1014.1 |
| 20260904041048 | 72 | 0 | 0.0 | 0.0 | 0.00 | 0.00 | 0.00 | 92 | 1014.2 |
| 20260904040549 | 72 | 0 | 0.0 | 0.0 | 0.00 | 0.00 | 0.00 | 92 | 1014.2 |
| 20260904040111 | 72 | 0 | 0.0 | 0.0 | 0.00 | 0.00 | 0.00 | 92 | 1014.0 |
| 20260904035546 | 72 | 0 | 0.0 | 0.0 | 0.00 | 0.01 | 0.00 | 92 | 1014.1 |
| 20260904035042 | 72 | 0 | 0.0 | 0.0 | 0.00 | 0.01 | 0.00 | 92 | 1014.0 |
| 20260904034603 | 72 | 0 | 0.0 | 0.0 | 0.00 | 0.01 | 0.00 | 91 | 1014.0 |
| 20260904034048 | 72 | 0 | 0.0 | 0.0 | 0.00 | 0.01 | 0.00 | 91 | 1014.1 |
| 20260904033546 | 72 | 0 | 0.0 | 0.0 | 0.00 | 0.01 | 0.00 | 91 | 1014.2 |
| 20260904033100 | 72 | 0 | 0.0 | 0.0 | 0.00 | 0.01 | 0.00 | 91 | 1014.4 |
| 20260904032546 | 72 | 0 | 0.0 | 0.0 | 0.00 | 0.01 | 0.00 | 91 | 1014.5 |
| 20260904032047 | 72 | 0 | 0.0 | 0.0 | 0.00 | 0.01 | 0.00 | 91 | 1014.6 |
| 20260904031604 | 72 | 0 | 0.0 | 0.0 | 0.00 | 0.01 | 0.00 | 91 | 1014.7 |
| 20260904031044 | 72 | 0 | 0.0 | 0.0 | 0.00 | 0.01 | 0.00 | 91 | 1014.5 |
| 20260904030546 | 72 | 0 | 0.0 | 0.0 | 0.00 | 0.01 | 0.00 | 91 | 1014.4 |
| 20260904030104 | 72 | 0 | 0.0 | 0.0 | 0.00 | 0.01 | 0.00 | 91 | 1014.5 |
| 20260904025546 | 72 | 0 | 0.0 | 0.0 | 0.00 | 0.01 | 0.00 | 91 | 1014.4 |
| 20260904025043 | 72 | 0 | 0.0 | 0.0 | 0.00 | 0.01 | 0.00 | 91 | 1014.5 |
| 20260904024604 | 72 | 0 | 0.0 | 0.0 | 0.00 | 0.01 | 0.00 | 90 | 1014.4 |
| 20260904024046 | 72 | 0 | 0.0 | 0.0 | 0.00 | 0.01 | 0.00 | 90 | 1014.5 |
| 20260904023546 | 73 | 0 | 0.0 | 0.0 | 0.00 | 0.01 | 0.00 | 90 | 1014.5 |
| 20260904023102 | 73 | 0 | 0.0 | 0.0 | 0.00 | 0.01 | 0.00 | 90 | 1014.5 |
| 20260904022546 | 73 | 0 | 0.0 | 0.0 | 0.00 | 0.01 | 0.00 | 89 | 1014.4 |
| 20260904022047 | 73 | 0 | 0.0 | 0.0 | 0.00 | 0.01 | 0.00 | 89 | 1014.3 |
| 20260904021605 | 73 | 0 | 0.0 | 0.0 | 0.00 | 0.01 | 0.00 | 89 | 1014.3 |
| 20260904021046 | 73 | 0 | 0.0 | 0.0 | 0.00 | 0.01 | 0.00 | 89 | 1014.3 |
| 20260904020546 | 73 | 0 | 0.0 | 0.0 | 0.00 | 0.01 | 0.00 | 89 | 1014.4 |
| 20260904020106 | 73 | 0 | 0.0 | 0.0 | 0.00 | 0.01 | 0.00 | 89 | 1014.4 |
| 20260904015544 | 73 | 0 | 0.0 | 0.0 | 0.00 | 0.01 | 0.00 | 89 | 1014.4 |
| 20260904015046 | 73 | 0 | 0.0 | 0.0 | 0.00 | 0.01 | 0.00 | 88 | 1014.2 |
| 20260904014609 | 73 | 0 | 0.0 | 0.0 | 0.00 | 0.01 | 0.00 | 88 | 1014.1 |
| 20260904014046 | 73 | 0 | 0.0 | 0.0 | 0.00 | 0.01 | 0.00 | 88 | 1013.9 |
| 20260904013548 | 74 | 0 | 0.0 | 0.0 | 0.00 | 0.01 | 0.00 | 88 | 1013.8 |
| 20260904013058 | 74 | 0 | 0.0 | 0.9 | 0.00 | 0.01 | 0.00 | 88 | 1013.9 |
| 20260904012544 | 74 | 0 | 0.0 | 0.9 | 0.00 | 0.01 | 0.00 | 87 | 1013.7 |
| 20260904012044 | 74 | 0 | 0.0 | 0.9 | 0.00 | 0.01 | 0.00 | 87 | 1013.7 |
| 20260904011601 | 74 | 0 | 0.0 | 0.0 | 0.00 | 0.01 | 0.00 | 87 | 1013.6 |
| 20260904011046 | 74 | 0 | 0.0 | 0.9 | 0.00 | 0.01 | 0.00 | 86 | 1013.6 |
| 20260904010544 | 74 | 0 | 0.0 | 0.9 | 0.00 | 0.01 | 0.00 | 86 | 1013.4 |
| 20260904010115 | 74 | 0 | 0.0 | 0.9 | 0.00 | 0.01 | 0.00 | 86 | 1013.5 |
| 20260904005548 | 75 | 0 | 0.0 | 0.9 | 0.00 | 0.01 | 0.00 | 86 | 1013.4 |
| 20260904005044 | 75 | 0 | 0.0 | 0.0 | 0.00 | 0.01 | 0.00 | 86 | 1013.3 |
| 20260904004602 | 75 | 0 | 0.0 | 0.0 | 0.00 | 0.01 | 0.00 | 85 | 1013.3 |
| 20260904004046 | 75 | 0 | 0.0 | 1.7 | 0.00 | 0.01 | 0.00 | 86 | 1013.2 |
| 20260904003545 | 75 | 0 | 0.0 | 1.7 | 0.00 | 0.01 | 0.00 | 86 | 1013.4 |
| 20260904003108 | 75 | 24 | 0.0 | 0.9 | 0.00 | 0.01 | 0.00 | 85 | 1013.4 |
| 20260904002545 | 75 | 0 | 0.0 | 0.9 | 0.00 | 0.01 | 0.00 | 85 | 1013.3 |
| 20260904002047 | 75 | 0 | 0.0 | 0.9 | 0.00 | 0.01 | 0.00 | 85 | 1013.2 |
| 20260904001601 | 76 | 0 | 0.0 | 0.9 | 0.00 | 0.01 | 0.00 | 85 | 1013.4 |
| 20260904001044 | 76 | 0 | 0.0 | 0.0 | 0.00 | 0.01 | 0.00 | 84 | 1013.3 |
| 20260904000544 | 76 | 0 | 0.0 | 0.0 | 0.00 | 0.01 | 0.00 | 84 | 1013.1 |
| 20260904000103 | 76 | 0 | 0.0 | 0.9 | 0.00 | 0.01 | 0.00 | 84 | 1013.1 |
| 20260903235545 | 76 | 0 | 0.0 | 1.7 | 0.00 | 0.01 | 0.00 | 84 | 1013.4 |
| 20260903235044 | 76 | 24 | 0.0 | 1.7 | 0.00 | 0.01 | 0.00 | 84 | 1013.4 |
| 20260903234601 | 76 | 11 | 0.0 | 2.6 | 0.00 | 0.01 | 0.00 | 83 | 1013.2 |
| 20260903234047 | 77 | 0 | 0.0 | 2.6 | 0.00 | 0.01 | 0.00 | 83 | 1013.1 |
| 20260903233548 | 77 | 13 | 0.0 | 0.9 | 0.00 | 0.01 | 0.00 | 82 | 1013.0 |
| 20260903233106 | 77 | 0 | 0.0 | 0.9 | 0.00 | 0.01 | 0.00 | 82 | 1013.0 |
| 20260903232544 | 77 | 0 | 0.0 | 1.7 | 0.00 | 0.01 | 0.00 | 82 | 1013.0 |
| 20260903232045 | 78 | 0 | 0.0 | 1.7 | 0.00 | 0.01 | 0.00 | 81 | 1012.9 |
| 20260903231557 | 78 | 17 | 0.0 | 1.7 | 0.00 | 0.01 | 0.00 | 81 | 1012.8 |
| 20260903231044 | 78 | 0 | 0.0 | 1.7 | 0.00 | 0.01 | 0.00 | 80 | 1012.9 |
| 20260903230544 | 78 | 0 | 0.0 | 1.7 | 0.00 | 0.01 | 0.00 | 80 | 1013.0 |
| 20260903230058 | 79 | 0 | 0.0 | 2.6 | 0.00 | 0.01 | 0.00 | 79 | 1013.0 |
| 20260903225545 | 79 | 107 | 0.0 | 2.6 | 0.00 | 0.01 | 0.00 | 79 | 1013.0 |
| 20260903225047 | 79 | 80 | 0.0 | 2.6 | 0.00 | 0.01 | 0.00 | 79 | 1013.0 |
| 20260903224557 | 80 | 0 | 0.0 | 2.6 | 0.00 | 0.01 | 0.00 | 78 | 1013.1 |
| 20260903224049 | 80 | 0 | 0.0 | 3.5 | 0.00 | 0.01 | 0.00 | 78 | 1013.1 |
| 20260903223545 | 80 | 9 | 0.0 | 3.5 | 0.00 | 0.01 | 0.00 | 78 | 1013.3 |
| 20260903223103 | 81 | 10 | 0.0 | 4.3 | 0.00 | 0.01 | 0.00 | 78 | 1013.2 |
| 20260903222547 | 81 | 22 | 0.9 | 4.3 | 0.00 | 0.01 | 0.00 | 78 | 1013.1 |